{"data":{"norad_id":39188,"intl_designator":"2013-031A","name":"O3B FM5","alt_names":[],"object_type":"PAYLOAD","status":"ACTIVE","operator":null,"country":"O3B","launch_date":"2013-06-25","launch_site_code":"FRGUI","launch_vehicle":null,"mission":null,"orbit_class":"UNKNOWN","rcs_meters":49.7749,"size_class":null,"mass_kg":null,"dimensions":null,"purposes":["comms"],"wikipedia_slug":null,"has_3d_model":false,"image_url":null,"decayed_at":null,"tle_current":{"epoch":"2026-09-19T18:54:49.840704Z","epoch_age_seconds":75909,"freshness":"FRESH","line1":"1 39188U 13031A   26262.78807686 -.00000027  00000+0  00000+0 0  9993","line2":"2 39188   0.0804 316.5641 0002457 208.6079 194.8374  5.00115762241762","mean_motion":5.00115762,"eccentricity":0.0002457,"inclination_deg":0.0804,"raan_deg":316.5641,"arg_perigee_deg":208.6079,"mean_anomaly_deg":194.8374,"bstar":0,"rev_number":24176,"period_min":287.9333365222,"perigee_km":8062.3362774274,"apogee_km":8069.4340699235,"semimajor_km":14444.022173675,"source":"CELESTRAK","updated_at":"2026-09-20T09:00:35.642769Z"}}}